RRR83 EGVN-EGHQ

Flight info

Callsign RRR83
Flight time N/A
Altitude 10000
Route CPT Y321 PEPIS Q41 ORTAC
Aircraft A400/H-SDE2E3FGHIJ4J5M1RWXY/LB1D1

Departure

Time N/A
Airport RAF Brize Norton (EGVN)

Arrival

Time 2026-05-04 21:53
Airport Cornwall Airport Newquay (EGHQ)
Time Latitude Longitude Altitude Speed Heading
2026-05-04 21:34 49.72950 -3.05599 10014 ft 349 kts 299°
2026-05-04 21:35 49.74178 -3.08851 10015 ft 349 kts 299°
2026-05-04 21:35 49.75388 -3.12060 10015 ft 349 kts 299°
2026-05-04 21:35 49.76617 -3.15322 10015 ft 349 kts 299°
2026-05-04 21:35 49.77843 -3.18580 10016 ft 350 kts 298°
2026-05-04 21:36 49.79056 -3.21811 10015 ft 350 kts 298°
2026-05-04 21:36 49.80285 -3.25086 10016 ft 350 kts 298°
2026-05-04 21:36 49.81513 -3.28362 10014 ft 350 kts 298°
2026-05-04 21:36 49.82719 -3.31583 10014 ft 350 kts 298°
2026-05-04 21:37 49.83943 -3.34857 10015 ft 350 kts 298°
2026-05-04 21:37 49.85166 -3.38131 10017 ft 350 kts 298°
2026-05-04 21:37 49.86390 -3.41415 10014 ft 350 kts 298°
2026-05-04 21:37 49.87595 -3.44649 10016 ft 350 kts 298°
2026-05-04 21:38 49.88812 -3.47921 10014 ft 350 kts 298°
2026-05-04 21:38 49.90033 -3.51209 10017 ft 350 kts 298°
2026-05-04 21:38 49.91252 -3.54492 10014 ft 350 kts 298°
2026-05-04 21:38 49.92469 -3.57777 10017 ft 350 kts 298°
2026-05-04 21:39 49.93685 -3.61063 10016 ft 350 kts 298°
2026-05-04 21:39 49.94883 -3.64305 10023 ft 350 kts 298°
2026-05-04 21:39 49.96093 -3.67581 10013 ft 349 kts 299°
2026-05-04 21:39 49.97297 -3.70847 10012 ft 348 kts 299°
2026-05-04 21:40 49.98500 -3.74114 10012 ft 348 kts 299°
2026-05-04 21:40 49.99693 -3.77358 10013 ft 348 kts 298°
2026-05-04 21:40 50.00899 -3.80641 10009 ft 348 kts 298°
2026-05-04 21:40 50.02098 -3.83910 10014 ft 348 kts 298°
2026-05-04 21:41 50.03302 -3.87196 10014 ft 348 kts 298°
2026-05-04 21:41 50.04489 -3.90440 10012 ft 348 kts 298°
2026-05-04 21:41 50.05683 -3.93707 10014 ft 348 kts 298°
2026-05-04 21:41 50.06881 -3.96990 10013 ft 348 kts 298°
2026-05-04 21:42 50.08078 -4.00274 10009 ft 348 kts 298°
2026-05-04 21:42 50.09274 -4.03557 10010 ft 347 kts 298°
2026-05-04 21:42 50.10459 -4.06816 10004 ft 339 kts 298°
2026-05-04 21:42 50.11590 -4.09926 9842 ft 321 kts 298°
2026-05-04 21:43 50.12666 -4.12892 9576 ft 308 kts 300°
2026-05-04 21:43 50.13692 -4.15723 9299 ft 298 kts 299°
2026-05-04 21:43 50.14708 -4.18531 9021 ft 292 kts 299°
2026-05-04 21:43 50.15689 -4.21247 8752 ft 290 kts 299°
2026-05-04 21:44 50.16679 -4.23989 8517 ft 289 kts 299°
2026-05-04 21:44 50.17665 -4.26725 8252 ft 288 kts 299°
2026-05-04 21:44 50.18645 -4.29442 7989 ft 286 kts 299°
2026-05-04 21:44 50.19619 -4.32149 7737 ft 285 kts 299°
2026-05-04 21:45 50.20588 -4.34844 7480 ft 284 kts 299°
2026-05-04 21:45 50.21540 -4.37495 7235 ft 283 kts 299°
2026-05-04 21:45 50.22505 -4.40184 6987 ft 282 kts 299°
2026-05-04 21:45 50.23464 -4.42859 6760 ft 281 kts 299°
2026-05-04 21:46 50.24420 -4.45528 6385 ft 280 kts 299°
2026-05-04 21:46 50.25367 -4.48175 5963 ft 278 kts 299°
2026-05-04 21:46 50.26295 -4.50771 5551 ft 276 kts 299°
2026-05-04 21:46 50.27231 -4.53392 5159 ft 274 kts 299°
2026-05-04 21:47 50.28157 -4.55990 4748 ft 271 kts 299°
2026-05-04 21:47 50.29061 -4.58528 4357 ft 269 kts 299°
2026-05-04 21:47 50.29973 -4.61089 3949 ft 269 kts 300°
2026-05-04 21:47 50.30879 -4.63642 3544 ft 267 kts 298°
2026-05-04 21:48 50.31653 -4.66278 3108 ft 265 kts 295°
2026-05-04 21:48 50.32482 -4.68849 2716 ft 262 kts 299°
2026-05-04 21:48 50.33402 -4.71299 2489 ft 260 kts 301°
2026-05-04 21:48 50.34292 -4.73628 2454 ft 245 kts 301°
2026-05-04 21:49 50.35140 -4.75850 2457 ft 225 kts 301°
2026-05-04 21:49 50.35895 -4.77839 2470 ft 200 kts 301°
2026-05-04 21:49 50.36575 -4.79636 2465 ft 186 kts 301°
2026-05-04 21:49 50.37212 -4.81327 2475 ft 173 kts 301°
2026-05-04 21:50 50.37801 -4.82892 2464 ft 161 kts 301°
2026-05-04 21:50 50.38358 -4.84371 2404 ft 155 kts 301°
2026-05-04 21:50 50.38897 -4.85798 2270 ft 151 kts 301°
2026-05-04 21:50 50.39432 -4.87216 2096 ft 151 kts 301°
2026-05-04 21:51 50.39967 -4.88634 1874 ft 150 kts 301°
2026-05-04 21:51 50.40488 -4.90016 1674 ft 149 kts 301°
2026-05-04 21:51 50.41017 -4.91420 1465 ft 148 kts 301°
2026-05-04 21:51 50.41541 -4.92812 1255 ft 152 kts 301°
2026-05-04 21:52 50.42069 -4.94209 1041 ft 149 kts 301°
2026-05-04 21:52 50.42593 -4.95604 823 ft 146 kts 301°
2026-05-04 21:52 50.43115 -4.96979 632 ft 148 kts 299°
2026-05-04 21:52 50.43648 -4.98393 384 ft 152 kts 298°
2026-05-04 21:53 50.44053 -4.99476 359 ft 72 kts 301°
2026-05-04 21:53 50.44238 -4.99967 360 ft 53 kts 300°
2026-05-04 21:53 50.44305 -5.00184 350 ft 8 kts 247°
2026-05-04 21:53 50.44279 -5.00275 355 ft 11 kts 245°
2026-05-04 21:54 50.44249 -5.00382 356 ft 9 kts 251°
2026-05-04 21:54 50.44226 -5.00496 348 ft 14 kts 249°
2026-05-04 21:54 50.44176 -5.00557 339 ft 7 kts 172°
2026-05-04 21:54 50.44146 -5.00570 334 ft 0 kts 249°